Temp
24 24 24 25 25 25 25 25 25 25 25 25 26 25 25 25 25 26 25 23 22 22 22 21 21 21 21 22 22 22 22 22 22 21 21 21 21 21 21 21 21 20 20
24 24 24 25 25 26 25 25 25 26 27 27 26 26 26 26 25 26 26 24 23 23 23 23 23 23 23 23 23 23 22 22 22 22 22 21 21 21 21 21 21 20 21
23 24 25 25 25 24 25 25 26 26 27 27 26 26 26 26 26 25 26 26 24 24 24 24 24 24 24 23 23 23 23 23 22 22 22 22 22 22 21 21 21 21 21
23 24 25 25 25 25 26 26 27 27 27 28 27 27 27 27 26 26 26 26 26 26 25 24 24 24 24 24 24 24 23 23 23 23 22 22 22 22 22 21 21 21 21
23 25 25 25 24 25 26 27 27 27 27 28 28 28 28 27 27 27 26 26 26 26 26 26 25 25 25 25 25 25 25 24 24 24 23 23 22 22 22 22 22 21 21
23 25 25 24 25 26 26 26 26 27 27 27 29 29 28 28 28 28 28 28 27 26 27 26 26 27 26 26 25 25 25 25 25 24 24 23 23 23 22 22 22 22 22
23 24 25 24 25 26 25 25 27 26 28 27 29 29 29 29 29 29 28 29 28 28 28 27 27 27 27 27 26 26 26 26 25 25 24 24 24 23 23 23 22 22 22
23 24 24 25 25 26 25 25 25 28 28 27 29 30 31 30 30 30 29 29 28 29 29 28 27 27 27 28 27 26 26 26 26 25 25 24 24 24 23 23 23 22 22
24 24 24 25 24 25 26 25 26 26 29 27 26 29 31 31 31 30 29 29 28 29 29 29 28 28 27 28 28 27 26 26 26 26 26 25 25 24 24 24 23 23 23
24 24 24 24 24 26 25 25 26 26 26 28 28 27 27 27 31 32 30 30 29 30 29 30 30 29 28 29 28 27 27 27 26 26 26 26 25 25 25 24 24 24 24
24 24 23 24 24 25 24 25 25 25 27 28 28 28 27 28 28 31 32 31 30 30 30 30 30 30 29 29 29 28 27 27 27 27 27 26 26 25 25 24 24 24 24
24 24 24 24 24 24 24 25 24 25 26 26 27 28 29 30 30 30 31 31 31 30 30 30 30 30 29 29 28 28 27 27 27 27 27 27 26 26 26 25 24 24 23
25 24 23 23 24 23 24 24 24 24 25 26 25 28 27 28 28 29 30 31 31 31 31 30 30 29 30 29 29 28 28 28 27 27 27 27 27 27 26 25 24 24 24
25 25 24 24 24 24 24 24 25 25 25 25 25 25 27 27 27 28 28 30 32 31 30 28 30 30 29 28 27 28 28 27 28 27 27 26 26 26 26 26 25 24 23
26 24 24 24 24 24 24 24 25 24 25 25 26 25 26 27 28 28 28 28 29 32 32 30 31 28 29 29 28 27 28 27 27 27 26 26 27 27 26 26 25 24 23
24 24 24 24 24 24 23 23 25 24 24 25 26 25 25 27 27 27 28 28 28 29 31 30 30 29 27 28 28 27 27 27 27 27 26 26 26 27 26 26 25 25 24
23 23 23 24 24 24 24 23 24 24 24 24 24 24 25 25 26 28 28 28 28 28 29 30 29 29 26 26 26 26 27 27 29 27 27 26 26 26 26 25 25 25 25
23 23 23 23 24 24 24 23 24 25 24 24 24 25 24 25 25 25 26 27 27 27 27 27 28 28 27 26 26 25 27 27 27 28 27 26 26 26 26 25 26 25 25
23 24 23 23 24 24 24 23 23 24 24 24 24 25 24 25 25 26 26 26 27 27 27 27 27 28 28 27 27 27 27 27 28 28 28 28 27 26 26 26 26 26 25
23 24 24 24 24 24 24 24 24 23 24 24 24 24 24 24 25 24 25 25 26 25 26 26 27 28 28 28 27 28 29 29 28 28 28 28 27 27 27 27 27 26 26
23 23 23 24 24 24 24 23 23 23 23 24 24 24 24 24 24 24 24 25 25 25 26 27 28 28 29 29 28 28 28 28 28 28 29 27 28 29 29 29 28 27 26
21 22 22 23 23 24 23 22 23 24 24 24 24 24 24 24 23 24 23 23 23 23 24 25 27 28 27 26 27 27 27 27 28 28 28 28 28 29 29 29 29 27 26
20 20 21 21 19 18 19 21 22 21 24 24 24 24 24 26 24 24 24 23 23 23 23 23 23 24 25 24 24 24 25 26 26 27 26 27 28 28 29 30 28 27 26
19 20 20 19 17 18 19 20 21 21 23 23 23 23 23 23 22 22 23 24 25 24 24 23 23 23 23 23 23 24 24 24 25 27 28 28 29 28 28 29 28 27 26
18 19 19 16 15 17 18 20 20 21 21 21 20 20 20 20 19 20 20 22 24 24 25 24 24 23 23 23 23 22 24 26 27 28 29 29 29 29 28 29 29 28 27
18 19 17 15 15 14 16 18 19 20 20 21 19 18 18 18 18 18 19 19 21 22 21 21 22 22 23 23 24 23 24 25 26 28 28 28 28 28 28 28 29 29 28
Height
880 881 882 882 882 882 882 882 881 881 881 881 881 882 881 882 881 880 881 880 880 880 880 880 879 879 878 877 876 875 874 873 871 870 868 867 866 864 862 861 861 861 859
881 882 883 883 883 883 883 883 883 882 881 881 883 882 882 882 882 882 882 881 881 880 880 880 879 879 879 878 876 875 874 873 871 870 868 866 864 862 860 860 859 858 857
882 883 883 884 884 885 885 884 883 883 882 882 883 883 882 883 883 883 882 882 882 881 881 880 880 880 879 878 876 875 874 873 871 869 867 865 862 860 858 857 856 856 854
884 884 884 885 886 885 885 885 883 883 882 882 883 882 882 883 883 883 883 883 883 882 882 881 881 881 880 879 877 875 874 872 870 868 867 864 862 859 857 855 854 853 852
884 885 884 886 886 885 885 884 885 884 884 882 881 882 882 883 883 882 883 884 884 883 883 882 882 881 881 879 878 876 874 872 870 868 867 864 862 859 857 854 852 851 849
885 885 885 886 886 885 885 885 886 885 885 884 879 881 882 882 883 883 883 883 884 884 883 884 883 882 881 880 879 877 875 873 871 869 867 865 862 859 857 854 852 850 848
884 885 885 886 886 886 887 887 886 886 883 884 879 879 881 881 882 882 882 882 883 883 883 883 883 882 881 881 880 878 875 873 871 869 867 865 862 860 857 855 852 850 848
884 884 885 886 886 887 888 887 887 884 884 885 881 879 875 879 879 880 882 882 882 882 882 883 884 883 882 881 880 879 877 874 872 869 867 865 863 860 858 855 852 850 848
883 884 885 885 886 886 886 888 887 886 883 885 884 880 875 874 877 880 881 881 882 882 882 883 883 883 882 882 880 879 877 874 872 869 867 865 863 861 858 856 853 850 848
882 884 884 885 886 886 887 888 888 887 885 883 884 884 884 883 875 874 879 880 881 881 883 882 882 882 882 881 880 879 877 875 872 870 867 865 863 861 859 856 853 851 849
881 882 884 885 885 886 887 888 888 888 887 885 884 884 885 883 883 877 874 877 879 880 881 881 881 881 881 881 880 879 877 875 872 870 867 865 863 860 858 856 854 852 850
880 881 883 883 885 886 887 887 889 889 889 888 887 885 883 881 881 878 876 878 878 880 880 881 881 881 880 880 879 879 877 875 872 869 867 864 862 859 857 855 853 851 850
879 880 882 883 884 885 886 887 888 890 889 889 889 887 887 886 885 883 879 878 877 879 879 880 881 881 879 880 879 878 876 874 871 868 866 863 861 858 856 854 852 851 849
878 879 881 882 883 885 886 887 888 888 889 889 889 889 887 887 887 886 884 880 875 876 878 880 880 880 880 879 878 877 876 873 870 867 865 862 860 858 855 853 851 850 848
876 879 880 881 882 883 885 885 886 888 888 889 889 889 888 887 887 886 886 885 882 873 869 876 876 879 880 877 877 876 874 871 869 866 864 862 859 856 854 852 850 848 847
876 878 879 880 881 882 884 884 885 886 887 887 887 888 888 886 886 886 885 885 884 882 876 875 877 879 880 878 875 874 872 868 864 863 862 860 858 854 852 850 848 846 845
875 875 878 878 880 881 882 883 885 885 886 886 886 887 887 887 886 883 883 884 883 883 880 876 876 877 879 877 875 873 870 867 863 859 859 857 855 852 850 848 846 844 842
874 875 875 876 878 878 880 881 882 882 884 884 884 885 885 884 884 884 883 883 882 882 882 880 878 877 876 875 873 871 867 864 861 858 856 854 851 849 846 845 843 841 839
873 874 874 873 875 876 876 878 880 880 880 881 882 881 882 882 882 881 881 881 879 878 878 877 875 873 871 871 869 867 864 861 857 854 852 849 848 846 844 842 839 837 835
869 871 871 872 872 872 874 875 876 877 878 878 878 879 880 880 880 881 879 879 878 878 876 875 872 869 867 865 865 861 858 856 854 853 849 847 845 842 839 837 835 832 831
866 868 868 869 870 871 871 872 873 874 875 875 875 875 876 876 877 877 877 876 876 876 873 870 866 864 862 860 860 860 857 853 851 849 845 845 841 838 835 832 830 828 826
866 866 866 866 866 867 866 867 869 871 871 871 872 872 872 872 872 873 873 873 873 874 873 871 867 863 863 863 859 859 855 853 849 847 844 841 839 834 831 827 825 825 822
865 866 868 868 866 866 865 865 866 867 868 868 868 869 869 867 868 869 868 869 869 869 869 869 867 864 863 862 861 858 856 853 849 845 843 836 835 831 826 823 820 820 819
865 867 867 868 867 865 865 865 865 865 865 865 865 866 866 866 863 864 865 864 864 864 864 863 861 860 859 857 856 854 852 849 844 839 835 829 827 826 823 819 817 815 814
865 867 868 866 866 865 865 863 865 865 865 865 864 861 861 861 861 861 862 862 860 859 858 858 856 855 853 851 850 849 846 842 834 831 828 824 821 818 818 814 811 807 808
865 865 867 868 865 866 865 864 864 866 864 864 864 862 861 861 859 859 858 858 857 857 855 852 851 848 847 844 843 841 840 837 832 826 823 821 818 816 812 810 806 805 804
Wind_Speed
11 10 8 7 6 6 7 7 8 8 7 8 7 8 8 9 8 8 7 7 6 5 4 4 4 5 6 6 6 7 7 8 8 9 9 9 9 9 8 8 7 6 6
8 7 7 6 6 6 6 7 7 8 7 8 7 7 7 8 9 8 8 7 8 7 6 6 6 7 7 6 7 7 8 9 10 10 11 11 11 10 10 10 9 9 8
7 6 5 5 5 5 5 6 6 7 8 8 7 7 6 6 7 6 7 7 5 9 8 8 8 8 7 8 8 9 9 10 10 11 11 11 11 11 11 11 11 10 11
6 6 6 6 4 4 5 6 6 8 7 7 6 5 5 5 5 5 5 5 6 6 6 8 8 8 8 9 10 11 12 11 11 11 11 11 11 10 11 10 9 9 11
5 7 6 5 3 3 4 4 6 4 5 4 3 4 4 4 4 6 5 4 4 5 5 4 7 9 9 9 10 11 12 12 12 12 12 12 11 11 11 11 10 8 9
5 5 5 5 3 3 5 5 4 4 3 3 4 6 4 3 4 4 4 5 5 3 3 3 3 5 10 10 11 12 12 12 12 12 13 14 12 12 13 12 10 8 7
4 4 5 4 2 3 4 3 2 3 5 4 3 6 6 5 5 4 3 4 5 4 4 4 4 5 5 9 11 11 13 13 12 12 13 13 14 14 13 12 11 9 8
6 5 7 5 4 6 3 3 2 1 4 6 4 2 4 7 6 4 3 3 4 5 5 4 3 3 5 6 8 11 12 12 13 12 12 12 13 14 14 14 11 10 9
7 5 6 5 4 3 4 2 3 3 5 4 6 5 3 3 3 3 3 4 4 5 4 3 2 3 4 5 8 8 11 12 12 12 12 12 12 13 14 13 12 10 9
8 7 6 6 5 5 4 3 2 2 4 4 3 5 6 4 3 6 5 4 5 4 3 0 2 3 4 5 6 8 11 12 12 12 12 13 12 10 11 11 11 10 9
7 9 7 6 5 6 5 4 2 2 2 3 4 3 3 3 3 3 3 6 5 3 2 1 2 2 3 4 5 7 11 12 12 12 12 13 12 10 8 9 9 9 8
8 9 9 8 7 5 5 4 4 3 1 2 3 3 5 5 6 2 1 2 1 3 1 1 1 2 3 4 3 8 11 13 14 13 12 14 12 10 8 7 7 7 7
6 9 10 8 8 6 5 4 5 3 2 1 2 2 2 3 4 4 3 4 1 2 1 2 1 2 4 4 5 10 11 16 16 14 12 13 11 9 9 7 7 6 6
7 6 10 9 10 7 6 5 6 7 6 4 2 2 2 1 2 4 5 7 3 5 4 4 0 2 3 4 6 10 11 15 16 14 11 11 11 10 10 9 8 8 6
6 8 10 10 10 11 9 7 8 8 7 8 5 5 6 4 3 2 3 5 7 5 2 6 5 2 5 5 8 11 13 14 13 12 11 12 13 13 11 9 10 9 9
6 6 9 9 9 10 10 8 8 9 9 9 9 7 8 9 7 6 5 5 5 8 7 1 6 5 7 10 9 13 14 16 16 13 14 17 16 16 10 10 10 11 11
7 9 9 11 10 10 10 10 8 7 9 10 9 9 10 10 11 10 9 8 9 9 11 14 7 9 10 11 14 14 15 16 17 11 19 19 16 15 10 10 10 10 11
8 6 6 9 10 10 11 11 11 9 10 10 9 10 11 12 11 12 12 11 12 10 12 13 15 15 12 13 13 14 15 16 15 15 17 15 15 12 8 12 11 11 12
8 8 7 6 8 9 9 10 11 10 10 10 9 10 10 11 12 13 12 14 14 14 13 16 16 17 15 15 14 16 15 13 14 13 15 13 13 12 14 14 12 13 14
11 12 11 10 8 6 6 7 9 9 9 10 11 10 10 11 11 11 13 12 13 13 16 16 18 18 17 14 15 16 16 15 15 18 15 15 16 15 16 17 16 14 15
6 9 11 10 10 9 9 9 9 9 10 11 12 11 12 12 14 14 13 12 12 14 15 17 16 16 16 13 13 17 17 17 18 15 16 15 19 18 17 16 15 10 17
1 2 6 7 9 7 13 14 12 10 10 11 12 11 11 13 15 16 17 18 17 16 16 16 18 17 16 16 15 15 18 19 17 16 17 23 21 21 20 18 13 20 19
4 4 2 3 4 0 8 9 11 10 12 12 11 11 11 12 10 12 13 15 17 17 19 21 20 20 20 18 17 18 18 20 21 24 25 24 20 20 19 20 17 21 19
2 2 5 5 4 5 2 3 3 5 9 9 10 9 10 9 11 12 12 14 16 17 17 18 18 20 21 19 17 18 21 23 24 23 22 23 22 22 22 19 20 19 17
4 5 4 6 4 4 3 3 3 1 2 2 2 6 7 7 10 12 10 13 16 17 17 17 19 20 22 24 24 21 22 24 25 26 23 24 24 24 21 23 21 15 14
5 6 5 4 5 4 3 2 2 2 2 1 1 4 6 5 7 7 6 7 10 12 13 17 20 21 21 22 20 19 18 21 24 25 22 19 23 21 23 24 16 17 22
Wind_Direction
112 117 114 113 101 96 83 66 63 67 87 94 84 73 71 68 73 81 83 59 78 79 81 72 57 48 41 36 32 25 17 9 360 353 347 340 334 328 320 312 306 297 283
117 116 118 111 98 88 70 69 67 77 80 96 87 81 77 78 77 79 89 72 67 83 84 82 75 62 51 44 35 23 15 5 358 350 342 337 333 325 317 309 301 292 286
118 119 120 117 98 94 76 79 91 98 94 97 91 86 86 82 85 84 88 92 91 63 77 79 72 61 50 40 28 14 8 1 356 352 349 346 342 333 323 313 300 288 282
118 124 129 134 119 100 94 91 84 93 86 91 81 76 83 89 88 93 93 95 98 101 65 65 63 53 36 26 18 12 11 7 1 359 360 357 351 346 341 334 317 296 279
128 127 120 133 125 109 101 110 97 68 92 76 125 95 91 99 115 104 97 95 101 95 93 34 49 44 35 26 23 22 22 22 19 16 15 10 5 359 356 345 344 329 298
140 139 136 135 136 114 112 94 71 65 58 42 27 76 84 115 120 117 113 113 104 94 83 71 43 45 31 38 36 28 23 22 20 17 19 19 16 8 4 357 356 354 341
173 157 153 145 151 151 92 90 116 61 70 40 263 118 107 128 121 117 115 116 111 100 99 92 66 59 44 24 28 28 24 19 13 10 13 17 19 17 15 10 4 5 3
183 170 167 157 138 144 124 88 34 75 72 41 30 228 143 149 105 82 110 120 113 121 115 96 71 35 27 30 10 17 19 12 10 5 4 8 15 18 20 20 18 16 15
182 173 172 176 157 177 159 134 94 356 75 63 48 347 201 86 181 125 129 115 141 133 121 103 69 30 8 26 22 17 13 15 11 6 3 3 6 12 19 23 26 25 20
191 193 185 180 185 195 175 164 111 72 326 65 110 65 54 20 4 144 127 127 160 161 124 312 65 64 30 34 34 13 10 10 6 5 4 5 360 358 13 19 24 27 23
201 197 192 187 186 181 182 178 164 82 74 42 56 106 63 95 71 313 112 134 161 153 137 224 40 18 26 20 26 4 3 4 359 351 349 350 350 348 349 9 16 21 23
195 197 195 193 184 178 178 188 187 160 77 59 66 51 32 19 41 36 202 170 29 138 148 87 48 2 349 352 357 358 356 355 349 344 342 343 342 342 333 339 360 6 11
199 192 196 200 194 195 194 194 190 197 179 207 346 45 50 47 27 21 349 87 288 113 171 170 14 341 336 336 350 347 345 347 346 337 332 335 346 346 339 322 326 341 350
205 190 196 204 202 203 204 206 209 213 208 221 238 322 314 355 12 9 9 340 202 186 175 336 332 11 15 349 333 353 342 336 346 342 340 348 356 353 342 325 310 315 322
204 202 200 207 210 209 215 212 225 226 223 229 237 248 265 267 286 318 334 343 332 315 219 144 301 100 330 319 318 337 331 322 334 339 340 345 346 338 337 330 314 306 303
233 200 203 208 214 218 224 226 223 223 232 233 240 245 258 260 261 264 281 298 308 309 302 84 290 327 317 318 325 325 316 318 305 304 318 323 332 331 334 339 326 314 304
259 218 215 219 221 226 227 226 238 245 240 242 249 253 259 261 261 261 258 268 277 281 290 294 311 290 309 307 311 316 318 312 315 315 320 320 318 314 314 336 332 327 321
246 234 238 227 221 227 230 226 227 243 240 238 248 256 259 254 251 257 260 265 278 283 280 290 287 291 293 305 307 313 317 316 316 305 319 330 324 319 314 322 319 314 313
234 240 244 245 237 231 226 228 228 229 227 231 244 250 256 255 256 263 262 271 268 266 263 272 282 281 287 296 305 306 307 307 306 319 320 322 327 313 313 314 308 305 310
233 238 238 235 233 223 209 210 222 229 233 237 245 247 250 253 256 266 261 258 265 272 272 265 272 276 279 292 287 294 309 314 313 316 312 309 311 303 311 313 312 313 316
223 234 227 223 219 218 227 221 221 227 239 242 240 245 245 246 249 254 260 263 274 270 273 276 277 278 278 295 317 306 299 302 307 306 307 308 312 310 304 302 297 289 309
126 228 231 223 219 211 219 224 221 235 234 237 245 246 251 256 261 264 264 262 259 263 268 276 285 284 294 284 288 297 308 307 306 307 308 305 305 305 304 300 303 303 299
146 130 102 123 113 195 261 248 248 245 246 245 249 256 259 258 254 260 263 270 270 268 265 262 268 276 287 289 294 291 289 295 293 300 301 298 304 301 305 307 306 303 303
150 151 146 136 85 29 3 300 269 259 251 250 257 261 261 272 261 251 263 265 266 269 269 267 263 271 272 274 275 278 283 284 283 282 284 283 299 298 304 302 304 299 300
202 188 168 133 98 42 38 137 86 15 323 274 269 233 222 243 277 279 275 276 274 274 284 279 276 276 277 278 276 275 277 281 286 288 289 288 295 298 297 299 302 282 285
170 160 149 139 119 54 22 359 58 360 84 79 256 330 331 340 322 312 302 296 285 282 301 296 293 288 285 287 287 276 272 276 282 289 292 294 289 294 298 294 297 292 295